GFSNE_sfc_thetae_132.txt.gz
Theta_e
333 336 333 328 326 325 322 320 316 308 310 316 318 329 330 330 336 336 334 334 332 326 324 323 324 326 328 329 332 335 337 338 339 340 341 343 344 344
330 329 330 328 327 326 324 321 319 315 310 315 317 324 330 331 333 336 337 333 330 327 326 324 322 321 323 325 327 330 332 333 333 333 335 335 336 338
331 329 327 329 327 325 323 322 319 318 314 316 319 322 324 326 326 329 333 335 334 327 326 324 322 320 320 321 323 325 327 328 329 329 329 330 331 332
328 327 326 327 327 326 324 321 320 319 317 313 317 318 319 322 328 329 330 330 330 330 324 323 321 319 318 318 318 320 321 322 323 325 326 327 327 328
325 325 324 325 323 323 324 324 323 322 320 317 316 319 317 319 320 323 325 326 332 331 325 323 319 319 318 317 316 316 316 316 316 318 320 322 322 323
318 320 323 323 322 322 322 321 322 320 319 318 316 314 315 317 318 319 318 323 325 331 329 327 323 319 318 317 317 317 315 313 312 311 310 311 312 316
314 314 315 317 316 317 320 320 320 318 317 315 315 314 314 312 317 319 316 319 322 327 328 330 325 323 320 317 321 319 315 312 309 308 308 307 306 308
308 310 312 314 313 311 310 312 316 316 314 314 313 312 313 313 314 315 315 315 314 324 325 327 329 329 329 324 319 315 312 311 309 308 307 306 305 305
304 304 305 307 308 310 310 309 310 307 309 314 313 313 313 314 314 313 313 314 316 321 324 321 327 326 326 322 312 312 312 309 307 307 307 306 305 305
301 301 301 301 302 303 305 305 307 309 311 314 314 314 316 316 316 314 314 316 319 321 323 314 325 324 323 318 310 310 309 307 306 306 307 305 304 303
300 300 300 300 299 297 299 299 302 304 306 306 305 306 304 302 306 314 313 311 310 314 321 319 321 320 322 319 314 307 306 307 307 306 305 304 302 300
298 299 298 298 296 295 297 298 298 300 302 304 312 309 307 310 304 308 311 310 311 312 320 318 319 320 319 323 316 312 307 303 303 304 303 301 300 313
295 296 298 296 295 294 295 297 297 299 301 304 308 310 311 311 313 313 316 316 314 314 320 321 318 319 318 322 323 322 317 307 309 304 300 300 300 308
294 296 297 295 294 294 294 295 294 296 301 302 307 308 308 308 311 316 318 320 322 320 320 321 318 318 315 318 317 323 321 320 316 312 305 300 299 299
295 296 294 294 293 293 294 294 295 298 300 300 304 306 308 310 314 316 318 320 322 323 322 321 319 319 317 313 318 318 315 315 313 309 308 308 308 307
297 295 294 294 295 296 297 299 300 302 302 303 304 306 309 312 312 315 316 318 317 317 323 324 323 322 318 316 318 318 316 312 310 305 303 302 304 307
291 292 293 295 298 298 299 301 303 304 304 305 305 307 308 311 313 316 316 314 311 312 316 320 314 309 304 307 317 317 315 311 306 303 301 297 296 298
290 290 290 293 299 299 300 302 304 304 306 307 307 308 308 311 313 316 314 311 309 310 313 318 316 315 312 304 304 313 309 306 306 304 301 295 293 295
289 289 290 294 299 302 303 304 305 308 309 309 309 311 312 313 310 314 311 310 309 310 312 317 319 316 311 307 303 297 304 302 300 297 298 296 292 293
290 291 292 296 300 301 305 306 307 309 310 311 312 313 314 313 311 311 312 310 309 309 310 316 317 316 314 310 301 297 294 299 296 292 290 291 291 293
292 294 296 298 300 302 304 308 311 311 312 313 313 314 314 314 310 310 311 301 304 314 313 316 312 299 304 303 295 293 294 295 296 293 292 291 291 291
295 298 299 300 302 305 307 311 312 311 313 313 314 314 314 314 312 311 312 312 313 315 316 314 313 313 308 300 292 291 292 294 296 296 296 296 293 289
297 299 302 305 309 310 311 313 313 313 314 315 315 315 315 314 316 315 316 315 315 317 316 315 308 303 300 295 292 292 292 292 293 292 292 295 296 295

GFSNE_sfc_thetae_138.txt.gz
Theta_e
323 321 319 319 319 316 314 313 312 303 305 307 307 311 314 315 325 330 327 329 328 325 323 322 323 324 324 325 326 328 329 330 333 335 338 340 341 343
325 323 324 324 324 322 321 317 312 313 309 307 308 310 312 316 323 328 326 328 326 324 323 323 322 321 322 322 322 324 325 326 328 330 333 335 337 338
320 321 321 321 319 319 318 316 314 311 312 315 310 310 312 316 316 318 320 320 324 324 324 322 320 319 319 320 320 321 322 323 324 326 329 331 332 333
312 314 317 322 318 317 317 317 316 315 313 314 311 310 310 312 312 312 316 323 322 324 322 321 318 316 316 316 316 316 316 317 319 322 325 327 328 331
307 307 308 308 307 310 310 313 314 317 314 314 315 312 311 311 312 313 316 315 319 323 319 318 318 318 317 316 315 314 312 312 313 315 320 323 324 325
305 305 306 306 305 306 306 305 307 308 310 311 313 313 310 312 309 308 307 310 313 321 322 319 319 320 318 317 317 317 312 310 310 311 313 314 315 317
301 302 303 306 310 308 305 302 302 303 306 308 308 310 310 308 306 309 308 310 311 314 314 315 316 317 316 317 320 319 314 310 309 309 309 308 308 311
296 298 299 302 303 305 306 307 305 301 300 302 303 305 309 308 307 307 308 307 305 311 311 309 314 312 314 316 316 314 312 309 309 308 308 307 307 307
294 295 296 299 301 301 302 304 303 303 304 302 300 302 305 308 310 307 308 306 305 309 312 307 310 311 314 319 311 308 307 307 306 306 306 305 305 304
295 296 297 298 300 301 300 299 299 300 301 302 302 304 307 310 307 308 309 308 306 309 312 305 308 310 313 318 309 307 306 304 304 304 304 303 302 301
296 297 296 297 298 296 298 297 297 298 300 299 298 297 297 298 301 304 303 307 306 304 309 308 307 308 311 315 316 308 303 302 303 303 303 302 301 300
294 295 297 297 295 295 296 296 294 295 296 296 299 299 299 300 300 302 304 304 308 301 306 308 306 309 313 318 314 313 311 305 302 302 302 303 303 312
293 294 295 295 294 293 293 295 295 297 297 297 297 297 298 298 299 301 306 306 305 307 309 311 308 310 314 316 315 312 311 309 308 305 303 302 303 309
293 294 295 294 293 293 293 293 293 294 295 295 295 296 296 298 300 301 304 310 312 311 312 315 308 311 310 311 315 313 312 311 310 307 305 300 299 299
294 295 294 293 292 293 293 293 293 294 294 294 294 295 297 299 302 304 307 311 312 313 314 314 312 312 314 314 315 314 310 309 309 307 307 308 307 306
295 295 294 293 293 294 294 295 296 297 295 294 295 296 298 300 302 304 307 309 308 309 315 316 315 315 315 317 317 313 310 306 307 305 303 301 302 305
292 291 291 291 290 291 292 293 295 298 296 296 297 298 300 301 302 305 307 307 307 305 310 313 309 308 305 308 315 315 308 306 304 302 300 297 296 297
289 289 288 290 289 290 290 292 295 299 299 300 302 302 303 304 305 307 308 306 305 306 310 307 308 309 308 307 304 309 307 304 304 301 300 296 295 295
289 289 289 290 290 290 292 293 295 302 304 303 303 304 304 305 303 306 307 308 307 310 312 310 311 311 308 302 302 297 304 302 299 295 295 295 293 292
289 289 289 290 290 292 294 295 297 300 302 304 304 305 305 305 305 306 307 308 309 309 311 312 312 313 308 304 298 295 292 301 297 292 290 291 291 294
291 291 292 293 293 293 295 296 298 300 303 305 307 305 306 307 307 309 308 299 302 308 310 311 306 296 302 302 296 292 293 295 296 293 292 291 291 291
293 293 294 295 296 298 299 300 301 302 303 304 304 307 309 310 309 309 308 304 304 310 305 303 306 304 301 298 292 291 291 294 296 296 296 296 293 290
295 296 298 300 302 302 303 303 305 306 306 303 304 306 309 310 310 308 306 307 309 307 304 300 298 297 296 294 292 291 291 292 292 291 292 295 295 295

GFSNE_sfc_thetae_141.txt.gz
Theta_e
322 321 320 320 321 319 315 312 309 303 305 307 309 313 312 312 317 320 327 327 328 324 322 322 322 322 324 324 325 326 328 329 331 333 335 336 339 342
318 317 318 320 321 320 320 318 316 313 310 309 309 309 310 313 316 320 325 327 325 323 323 322 321 321 320 321 321 323 324 325 326 327 329 331 334 336
309 312 313 315 315 316 317 315 313 311 310 314 311 312 309 310 314 318 322 320 318 320 321 322 320 318 317 317 318 319 320 322 323 324 326 325 328 332
306 307 308 312 307 309 311 311 312 312 310 312 312 308 309 311 311 311 314 316 315 320 320 320 318 316 316 316 315 315 315 315 316 320 321 322 326 330
304 304 304 304 302 303 304 304 305 309 309 312 313 312 310 310 310 310 312 314 318 323 318 317 316 316 317 315 315 314 312 311 310 311 316 319 322 326
301 302 303 303 302 302 304 303 303 302 303 304 306 309 310 312 309 311 310 308 310 315 318 317 318 318 317 316 316 316 313 311 309 308 308 311 314 318
299 300 300 302 306 306 305 301 299 299 300 301 301 301 305 306 305 308 307 310 309 310 312 312 315 314 314 314 316 316 313 311 310 309 306 307 308 310
294 295 296 299 299 302 304 305 304 299 299 298 299 299 301 304 307 306 305 304 306 310 310 310 313 310 312 312 313 311 309 309 309 308 306 306 306 306
293 294 294 297 299 299 300 302 303 304 304 301 297 298 299 302 306 307 304 304 307 308 310 306 308 308 310 314 309 307 308 306 305 306 305 305 305 303
294 294 294 296 297 297 298 300 300 300 300 302 301 302 302 303 302 306 306 306 305 306 309 307 306 307 309 311 307 307 305 306 304 303 304 304 303 302
294 295 295 295 296 295 297 297 297 298 301 300 299 298 296 296 297 298 297 300 302 304 310 310 307 307 307 308 310 308 305 302 301 302 303 303 301 300
293 294 296 295 295 294 295 295 295 295 297 297 297 298 297 298 298 298 298 298 300 301 308 309 305 305 305 313 314 313 311 304 301 302 302 301 300 310
292 293 294 295 294 293 293 295 295 296 296 296 296 297 297 298 299 299 301 301 299 300 308 311 308 306 308 308 315 313 312 310 310 307 302 303 303 309
291 293 294 294 293 293 293 293 293 294 295 295 294 294 295 296 296 298 300 300 301 302 306 311 309 307 307 306 311 312 311 311 312 308 307 303 301 302
294 294 294 293 293 293 293 293 293 294 294 293 293 294 296 298 298 299 301 303 302 303 307 310 311 308 310 307 312 312 308 309 309 307 308 307 307 307
294 294 294 293 293 293 293 294 294 295 294 294 294 296 298 297 297 298 299 302 303 303 309 312 313 312 309 314 315 312 310 307 307 306 303 301 301 304
292 291 291 290 290 291 291 292 293 294 293 296 296 296 296 297 298 300 301 302 302 304 307 311 312 309 304 307 313 311 308 305 304 303 301 298 297 297
290 289 288 289 289 290 290 290 292 294 295 298 298 297 298 299 301 303 303 303 305 306 308 307 306 307 307 305 304 308 305 303 303 302 301 298 296 295
289 289 288 289 289 290 290 291 292 295 298 301 301 302 303 304 302 305 305 306 305 306 308 309 309 309 307 302 303 297 303 301 298 294 295 295 293 292
291 290 290 291 291 291 292 293 294 296 298 299 301 303 303 303 303 304 305 305 306 308 309 309 310 311 310 303 297 295 293 301 297 292 290 292 292 294
293 293 294 294 294 294 294 295 295 296 297 300 302 305 305 305 304 305 305 296 301 309 308 309 309 296 301 303 296 292 293 295 297 294 292 292 291 292
296 296 296 297 297 298 298 299 299 299 301 302 304 306 306 307 306 306 307 306 307 309 303 302 305 306 302 301 293 290 291 294 296 296 296 296 294 291
294 297 300 301 302 302 302 302 303 304 305 307 305 305 308 309 310 309 308 309 307 304 301 299 298 297 296 294 292 291 291 292 292 290 291 295 295 295

GFSNE_sfc_thetae_144.txt.gz
Theta_e
319 322 322 324 325 325 322 320 317 312 314 316 315 321 319 320 323 326 328 327 327 323 322 322 322 323 323 324 324 324 326 327 329 331 333 335 337 338
316 316 318 322 322 324 324 323 321 318 315 320 319 320 323 322 321 326 326 326 325 323 322 322 320 321 321 321 320 321 323 324 325 326 328 330 332 333
311 311 312 315 317 317 319 320 320 318 314 318 320 323 321 321 323 324 326 329 329 321 321 319 318 318 318 318 318 319 320 320 321 322 324 326 326 327
307 308 308 309 309 310 311 312 315 317 316 313 317 317 317 320 321 320 321 321 322 320 318 317 317 316 316 315 316 316 314 314 315 317 320 320 322 324
304 305 305 306 306 306 306 307 309 310 313 311 310 317 317 319 320 319 318 321 321 322 318 318 317 316 315 315 314 313 312 310 309 310 313 316 319 321
302 303 302 303 303 304 304 306 307 307 307 306 307 307 310 315 316 314 316 318 319 321 320 317 317 317 316 315 314 315 311 309 308 308 307 308 309 312
300 300 301 302 303 303 303 304 305 304 304 303 302 304 305 307 308 312 312 315 318 318 319 319 322 324 324 316 319 316 312 310 308 307 307 305 304 306
295 297 297 299 298 299 300 301 302 301 300 300 300 300 303 304 307 309 311 310 307 316 318 317 323 322 322 322 314 310 308 308 307 306 306 305 304 304
295 295 296 297 299 298 299 300 301 301 302 301 299 300 301 303 306 305 307 308 308 313 316 313 318 317 322 320 309 308 306 304 305 306 305 305 304 303
295 295 295 295 296 297 298 297 298 300 302 302 301 301 302 303 302 302 301 302 306 310 315 308 316 315 322 321 308 304 303 302 306 306 306 303 302 301
294 295 295 295 296 295 295 295 296 299 301 300 299 299 297 297 298 298 296 296 297 302 313 312 313 314 317 320 323 304 303 303 302 302 302 302 301 300
294 295 295 295 294 294 294 294 293 295 297 298 299 299 298 299 298 299 298 295 296 299 308 309 312 313 310 318 320 318 317 306 302 301 301 302 300 309
292 292 294 294 294 293 293 295 294 296 296 296 297 297 299 299 300 301 302 299 298 297 306 308 312 311 313 315 316 316 316 314 312 307 300 299 300 309
292 293 294 293 293 292 293 293 293 294 295 294 294 294 296 297 299 300 302 302 302 301 307 309 303 308 309 311 313 314 313 314 312 309 308 303 301 300
293 294 293 293 293 293 293 293 293 294 293 293 293 294 296 298 299 300 301 302 301 302 304 306 305 307 308 311 312 314 310 310 310 308 309 309 309 309
293 293 294 293 293 293 293 294 294 294 293 293 293 295 297 297 297 299 298 298 298 300 304 305 306 304 306 312 314 313 312 308 308 307 305 303 305 308
290 291 292 291 291 291 291 292 293 293 292 293 294 294 296 297 297 299 298 298 297 299 302 305 306 307 310 310 311 313 309 307 307 304 303 299 298 299
290 290 290 290 290 290 290 291 292 292 293 294 295 296 297 297 297 299 299 299 298 300 302 307 306 306 305 304 301 310 306 304 305 304 305 301 300 298
291 292 292 291 292 292 291 292 292 294 295 296 297 299 299 299 298 300 301 302 301 303 306 308 308 307 306 304 303 298 302 301 299 295 297 298 297 295
295 295 294 295 295 294 294 293 294 295 296 297 298 299 302 302 302 302 304 305 305 307 307 309 310 310 309 305 297 296 293 301 298 293 293 293 292 294
293 294 295 297 298 298 298 297 296 296 296 298 298 300 302 304 303 304 305 296 299 307 307 308 310 297 304 301 295 291 294 295 297 295 294 295 295 294
291 292 294 295 297 300 303 303 300 300 300 301 301 302 306 306 306 307 306 304 305 308 304 302 305 308 305 301 293 291 292 294 295 295 296 297 299 296
289 291 292 294 296 300 304 304 304 304 305 305 307 307 308 307 307 307 307 307 307 304 302 300 299 299 297 295 292 292 292 292 292 291 292 295 295 295

GFSNE_sfc_thetae_147.txt.gz
Theta_e
320 321 319 318 321 324 327 328 325 320 320 326 324 333 330 330 330 332 334 329 326 324 323 323 324 324 325 326 326 326 326 327 328 330 331 334 337 338
316 318 319 318 319 319 319 321 323 321 318 327 328 331 332 330 330 330 332 327 324 323 323 322 321 321 321 322 323 323 325 324 324 325 326 328 330 332
314 314 314 317 315 316 316 316 316 317 315 317 322 328 330 331 332 333 332 332 330 322 323 322 319 318 318 319 320 321 322 322 321 322 323 324 325 327
310 310 309 309 312 314 313 314 314 315 315 312 316 317 322 326 329 330 330 329 329 325 321 318 316 315 316 316 316 317 316 316 316 317 318 320 321 323
308 308 307 307 308 308 310 310 311 312 313 311 311 314 315 318 320 324 327 329 329 325 318 317 317 316 316 315 314 314 312 311 310 311 313 316 317 319
306 306 306 306 306 307 307 308 308 307 308 308 308 309 311 314 314 313 314 319 321 324 323 319 318 318 316 315 314 315 311 309 308 308 308 307 308 310
304 304 305 305 304 304 304 306 306 304 306 306 306 306 306 307 308 310 311 313 317 320 321 323 324 324 323 316 321 318 312 310 309 308 307 305 305 306
302 303 304 303 303 301 300 301 301 301 301 301 301 302 305 307 309 308 309 308 306 315 315 316 320 320 322 324 319 315 311 309 308 307 306 304 304 305
299 299 300 302 302 303 301 300 300 301 301 300 299 300 301 304 306 304 305 306 306 312 313 309 314 315 321 321 312 310 308 305 305 304 304 305 304 304
298 298 298 298 300 299 297 297 299 301 301 301 302 303 304 305 305 304 303 302 303 306 312 306 314 312 316 319 311 308 306 303 301 302 305 304 304 302
298 299 298 297 296 295 295 295 296 297 300 299 300 298 297 297 299 300 297 296 296 299 307 307 309 312 314 315 317 307 303 301 300 301 303 304 303 302
295 296 297 297 294 294 295 294 293 295 297 298 299 299 299 301 299 300 298 295 296 297 304 304 306 311 310 316 318 320 321 305 302 302 301 301 300 313
293 294 297 295 294 293 293 295 294 296 296 297 297 297 298 299 301 303 304 300 297 297 304 305 308 308 311 311 319 321 322 321 322 316 302 300 300 308
293 294 295 294 293 292 293 293 292 294 295 294 294 295 296 297 299 302 304 305 305 304 306 307 304 304 303 303 311 320 320 320 319 314 312 302 299 301
294 294 293 292 292 293 293 293 293 295 295 293 293 294 296 299 300 301 302 303 303 304 306 307 304 304 305 303 306 313 315 316 314 311 309 310 310 312
294 293 293 293 293 294 294 294 295 295 294 293 293 295 296 297 297 300 299 299 299 301 305 306 306 304 304 303 307 308 318 314 310 309 308 306 307 309
291 292 294 294 293 293 293 294 295 295 293 294 293 293 294 295 296 298 298 298 297 298 300 304 307 307 308 305 303 310 316 312 310 304 304 302 301 303
292 294 295 295 294 294 294 294 294 294 294 294 294 294 294 295 296 298 299 298 297 298 299 303 304 303 304 302 302 310 313 307 307 306 306 302 301 300
295 295 295 295 296 297 297 296 295 295 296 296 295 296 297 298 297 298 299 299 298 299 300 303 304 303 300 302 303 297 305 303 301 298 301 303 299 297
294 293 293 293 295 296 298 300 299 298 296 296 296 297 298 299 301 301 303 302 301 301 301 304 306 306 309 308 301 296 293 303 302 295 293 295 295 294
290 290 292 293 293 295 297 301 302 301 299 298 298 299 300 301 302 304 304 295 300 305 305 306 309 298 303 305 297 293 293 295 298 296 296 297 299 299
288 289 290 291 293 295 296 299 298 300 304 303 300 299 301 304 305 308 306 305 307 308 305 304 309 309 311 300 293 292 293 295 295 295 295 298 308 303
287 288 289 291 293 294 295 297 295 296 299 306 309 308 307 307 308 311 309 308 307 306 304 301 302 306 303 296 293 293 292 292 293 291 292 294 295 295